www.pogodaiklimat.ru

Погода и климат >> Архив погоды >> Бразилия >> Минас-Жерайс >> Сан-Ромао


ПОГОДА в Сан-Ромао

  • Прогноз погоды в Сан-Ромао
  • Монитор погоды в Сан-Ромао

АРХИВ ПОГОДЫ в Сан-Ромао

Время (UTC), дата Ветер
(напр.,м/с)
 
Видим.   Явления Облачность Т
(С)
Тd
(С)
f
(%)
Тe
(С)
Тes
(С)
Комфортность P
(гПа)
Po
(гПа)
Тmin
(С)
Tmax
(С)
R
(мм)
R24
(мм)
S
(см)
07 18.05 штиль 0 н/о н/о +17.2 +16.7 97 +17 +17 1015.9 958.9
08 18.05 штиль 0
{1}
н/о н/о +16.8 +16.4 97 +17 +17 1016.0 958.9
09 18.05 штиль 0
{1}
н/о н/о +17.8 +17.5 98 +18 +18 1016.4 959.5
10 18.05 штиль 0
{1}
н/о н/о +18.2 +17.9 98 +19 +19 1017.2 960.3
11 18.05 штиль 0
{1}
н/о н/о +20.1 +19.8 98 +24 +24 комфорт 1017.6 961.1
12 18.05 В 1
{2}
н/о н/о +23.4 +19.0 76 +30 +30 очень
душно
1017.6 961.7
13 18.05 СВ 1
{2}
н/о н/о +26.7 +19.1 63 +32 +32 очень
душно
1016.9 961.6
14 18.05 В 1
{2}
н/о н/о +27.5 +18.0 56 +32 +32 очень
душно
1016.0 960.9
15 18.05 Ю 1
{2}
н/о н/о +28.1 +18.9 57 +33 +33 очень
душно
1015.0 960.1
16 18.05 Ю 2
{3}
н/о н/о +29.0 +18.4 53 +34 +34 очень
душно
1013.8 959.1
17 18.05 Ю 1
{3}
н/о н/о +28.2 +18.2 55 +33 +33 очень
душно
1013.0 958.2
18 18.05 З 1
{3}
н/о н/о +30.2 +17.6 47 +34 +34 очень
душно
1011.9 957.5
19 18.05 ЮЗ 2
{3}
н/о н/о +29.5 +18.4 51 +34 +34 очень
душно
1011.8 957.3
20 18.05 ЮЗ 1
{3}
н/о н/о +27.7 +18.9 59 +33 +33 очень
душно
1012.6 957.7
21 18.05 штиль 0
{2}
н/о н/о +23.5 +20.1 81 +29 +29 душно 1013.7 958.0
22 18.05 ЮЗ 1
{1}
н/о н/о +21.8 +19.9 89 +27 +27 душно 1014.7 958.7
23 18.05 Ю 1
{2}
н/о н/о +21.7 +19.3 86 +27 +27 душно 1015.4 959.3
00 19.05 Ю 1
{1}
н/о н/о +20.8 +19.2 91 +27 +27 душно 1016.0 959.7
01 19.05 Ю 1
{1}
н/о н/о +20.0 +18.8 93 +25 +25 комфорт 1016.4 959.9
02 19.05 Ю 1
{1}
н/о н/о +19.6 +18.8 95 +24 +24 комфорт 1016.7 960.1
03 19.05 штиль 0
{1}
н/о н/о +19.3 +18.6 96 +21 +21 комфорт 1016.7 960.1
04 19.05 ЮЗ 1
{1}
н/о н/о +19.5 +18.5 94 +23 +23 комфорт 1016.4 959.8
05 19.05 Ю 1
{1}
н/о н/о +19.0 +18.3 96 +22 +22 комфорт 1016.1 959.5
06 19.05 штиль 0
{2}
н/о н/о +18.8 +18.0 95 +20 +20 1015.9 959.2
07 19.05 Ю 1
{1}
н/о н/о +18.6 +18.0 96 +21 +21 комфорт 1015.8 959.1
08 19.05 Ю 1
{2}
н/о н/о +18.5 +17.9 96 +21 +21 комфорт 1016.1 959.4
09 19.05 Ю 1
{1}
н/о н/о +17.8 +17.3 97 +19 +19 1016.6 959.7 0.2
10 19.05 Ю 1
{1}
н/о н/о +18.5 +18.1 98 +21 +21 комфорт 1017.0 960.2
11 19.05 Ю 1
{2}
н/о н/о +21.2 +19.0 87 +26 +26 душно 1017.2 960.9
12 19.05 ЮВ 1
{2}
н/о н/о +24.8 +19.2 71 +30 +30 душно 1017.0 961.4
13 19.05 В 1
{3}
н/о н/о +27.9 +19.2 59 +33 +33 очень
душно
1016.5 961.5
14 19.05 СВ 1
{2}
н/о н/о +29.2 +17.9 51 +34 +34 очень
душно
1015.5 960.7
15 19.05 ЮЗ 1
{2}
н/о н/о +28.3 +17.9 53 +33 +33 очень
душно
1014.8 959.9
16 19.05 ЮЗ 1
{2}
н/о н/о +29.3 +18.4 52 +34 +34 очень
душно
1013.6 959.0
17 19.05 Ю 1
{3}
н/о н/о +31.3 +17.1 43 +35 +35 очень
душно
1012.1 957.9
18 19.05 ЮЗ 2
{3}
н/о н/о +31.0 +16.9 43 +35 +35 очень
душно
1011.4 957.2
19 19.05 ЮЗ 1
{3}
н/о н/о +30.4 +15.7 41 +33 +33 душно 1011.4 957.1
20 19.05 ЮЗ 1
{2}
н/о н/о +28.8 +17.1 49 +33 +33 очень
душно
1011.9 957.3
21 19.05 ЮЗ 1
{2}
н/о н/о +23.0 +19.2 79 +29 +29 очень
душно
1013.3 957.6
22 19.05 ЮЗ 1
{1}
н/о н/о +20.8 +18.7 88 +27 +27 душно 1014.3 958.1
23 19.05 ЮЗ 1
{1}
н/о н/о +19.6 +18.1 91 +24 +24 комфорт 1015.1 958.6
00 20.05 штиль 0
{1}
н/о н/о +18.8 +17.6 93 +20 +20 1015.9 959.2
01 20.05 штиль 0
{1}
н/о н/о +18.1 +17.1 94 +18 +18 1016.5 959.7
02 20.05 штиль 0
{1}
н/о н/о +18.2 +17.4 95 +19 +19 1016.5 959.7
03 20.05 штиль 0
{2}
н/о н/о +18.1 +17.3 95 +18 +18 1016.6 959.8
04 20.05 Ю 1
{1}
н/о н/о +17.9 +17.1 95 +20 +20 1016.5 959.6
05 20.05 штиль 0
{1}
н/о н/о +17.1 +16.3 95 +17 +17 1016.0 959.0
06 20.05 штиль 0
{1}
н/о н/о +16.8 +16.2 96 +17 +17 1015.7 958.7
07 20.05 штиль 0
{1}
н/о н/о +16.5 +16.0 97 +16 +16 1015.5 958.4
08 20.05 ЮЗ 1
{1}
н/о н/о +16.8 +16.4 97 +18 +18 1015.7 958.7
09 20.05 ЮЗ 1
{1}
н/о н/о +16.2 +15.7 97 +18 +18 1016.2 959.0
10 20.05 Ю 1
{1}
н/о н/о +17.2 +16.7 97 +19 +19 1016.6 959.6
11 20.05 В 1
{1}
н/о н/о +20.0 +18.4 91 +25 +25 комфорт 1017.1 960.6
12 20.05 ЮВ 1
{2}
н/о н/о +24.3 +18.5 70 +29 +29 душно 1016.8 961.1
13 20.05 В 1
{2}
н/о н/о +27.4 +18.3 58 +32 +32 очень
душно
1016.0 960.9
14 20.05 СВ 1
{2}
н/о н/о +30.0 +19.0 52 +35 +35 очень
душно
1015.0 960.4
15 20.05 Ю 1
{2}
н/о н/о +31.1 +17.6 44 +35 +35 очень
душно
1013.8 959.5
16 20.05 Ю 1
{3}
н/о н/о +31.8 +15.9 38 +34 +34 душно 1012.5 958.4
17 20.05 Ю 1
{3}
н/о н/о +32.6 +15.6 36 +35 +35 душно 1011.3 957.4
18 20.05 Ю 1
{3}
н/о н/о +32.4 +15.2 35 +34 +34 очень
жарко
1010.8 956.9
19 20.05 Ю 2
{3}
н/о н/о +31.6 +15.9 39 +34 +34 душно 1011.1 957.0
20 20.05 ЮЗ 1
{3}
н/о н/о +30.5 +16.1 42 +34 +34 очень
душно
1011.5 957.2
21 20.05 ЮЗ 1
{2}
н/о н/о +24.5 +18.0 67 +29 +29 душно 1013.0 957.5
22 20.05 ЮЗ 1
{1}
н/о н/о +22.1 +18.1 78 +27 +27 душно 1013.7 957.8
23 20.05 ЮЗ 1
{1}
н/о н/о +21.1 +18.5 85 +25 +25 комфорт 1014.2 958.1
00 21.05 ЮВ 1
{1}
н/о н/о +19.7 +17.9 89 +24 +24 комфорт 1015.3 958.8
01 21.05 штиль 0
{1}
н/о н/о +19.1 +17.6 91 +21 +21 комфорт 1015.6 959.0
02 21.05 штиль 0
{1}
н/о н/о +18.5 +17.4 93 +19 +19 1015.9 959.2
03 21.05 Ю 1
{1}
н/о н/о +18.2 +17.3 94 +20 +20 1016.0 959.2
04 21.05 Ю 1
{1}
н/о н/о +18.5 +17.0 91 +21 +21 комфорт 1015.6 958.9
05 21.05 Ю 1
{1}
н/о н/о +18.1 +16.7 92 +20 +20 1015.1 958.3
06 21.05 Ю 1
{2}
н/о н/о +17.9 +16.4 91 +20 +20 1014.7 957.9
07 21.05 ЮЗ 1
{2}
н/о н/о +16.4 +15.5 94 +18 +18 1014.8 957.7
08 21.05 Ю 1
{1}
н/о н/о +17.0 +16.4 96 +18 +18 1015.2 958.2
09 21.05 Ю 1
{1}
н/о н/о +17.8 +16.5 92 +19 +19 1015.5 958.7
10 21.05 штиль 0
{1}
н/о н/о +17.8 +16.7 93 +18 +18 1016.5 959.6
11 21.05 штиль 0
{1}
н/о н/о +21.3 +16.7 75 +25 +25 комфорт 1016.5 960.3
12 21.05 Ю 1
{2}
н/о н/о +25.1 +17.2 62 +29 +29 душно 1016.0 960.5
13 21.05 В 1
{3}
н/о н/о +28.4 +17.8 53 +33 +33 очень
душно
1015.7 960.8
14 21.05 В 1
{3}
н/о н/о +31.4 +18.2 45 +36 +36 очень
душно
1014.4 960.1
15 21.05 ЮВ 1
{2}
н/о н/о +32.9 +17.9 41 +37 +37 очень
душно
1013.2 959.2
16 21.05 Ю 1
{3}
н/о н/о +31.7 +17.7 43 +36 +36 очень
душно
1012.5 958.3
17 21.05 В 1
{2}
н/о н/о +33.0 +16.8 38 +36 +36 очень
душно
1011.5 957.6
18 21.05 СЗ 1
{2}
н/о н/о +32.6 +18.4 43 +37 +37 очень
душно
1010.9 957.0
19 21.05 ЮЗ 1
{2}
н/о н/о +32.8 +17.6 40 +37 +37 очень
душно
1010.9 957.0
20 21.05 З 2
{3}
н/о н/о +30.9 +18.1 46 +35 +35 очень
душно
1011.5 957.3
21 21.05 З 1
{3}
н/о н/о +26.7 +18.9 62 +32 +32 очень
душно
1012.6 957.6
22 21.05 ЮЗ 1
{1}
н/о н/о +24.5 +19.1 72 +29 +29 душно 1013.4 957.9
23 21.05 ЮЗ 1
{1}
н/о н/о +22.0 +19.1 84 +27 +27 душно 1014.2 958.2
00 22.05 Ю 1
{1}
н/о н/о +21.2 +18.6 85 +26 +26 душно 1014.9 958.7
01 22.05 штиль 0
{1}
н/о н/о +20.5 +18.7 89 +24 +24 комфорт 1015.2 958.9
02 22.05 штиль 0
{1}
н/о н/о +19.3 +18.1 93 +21 +21 комфорт 1015.7 959.1
03 22.05 штиль 0
{1}
н/о н/о +19.1 +17.9 93 +21 +21 комфорт 1015.8 959.2
04 22.05 Ю 1
{1}
н/о н/о +19.2 +18.0 93 +23 +23 комфорт 1015.5 958.9
05 22.05 ЮЗ 1
{1}
н/о н/о +18.7 +17.5 93 +21 +21 комфорт 1015.0 958.4
06 22.05 Ю 1
{1}
н/о н/о +18.3 +17.2 93 +20 +20 1015.0 958.3
07 22.05 ЮЗ 1
{1}
н/о н/о +18.0 +17.2 95 +20 +20 1015.0 958.2
08 22.05 Ю 1
{2}
н/о н/о +18.7 +17.6 93 +21 +21 комфорт 1015.0 958.4
09 22.05 штиль 0
{2}
н/о н/о +18.5 +17.6 94 +19 +19 1015.9 959.2
10 22.05 штиль 0
{1}
н/о н/о +18.3 +17.6 96 +19 +19 1016.8 960.0
11 22.05 Ю 1
{1}
н/о н/о +21.5 +18.6 84 +26 +26 душно 1016.9 960.7
12 22.05 Ю 1
{1}
н/о н/о +25.2 +18.6 67 +30 +30 душно 1016.5 961.0
13 22.05 В 1
{3}
н/о н/о +29.7 +18.7 52 +35 +35 очень
душно
1015.5 960.8
14 22.05 В 1
{2}
н/о н/о +31.2 +18.6 47 +36 +36 очень
душно
1014.8 960.4
15 22.05 ЮЗ 1
{2}
н/о н/о +32.0 +17.1 41 +36 +36 очень
душно
1013.7 959.5
16 22.05 Ю 1
{3}
н/о н/о +33.1 +15.3 34 +35 +35 душно 1012.4 958.5
17 22.05 ЮЗ 1
{3}
н/о н/о +31.6 +15.6 38 +34 +34 душно 1011.7 957.6
18 22.05 ЮЗ 1
{2}
н/о н/о +32.9 +14.7 33 +34 +34 очень
жарко
1010.9 957.0
19 22.05 ЮЗ 1
{3}
н/о н/о +32.7 +15.6 36 +35 +35 душно 1010.6 956.7
20 22.05 В 1
{2}
н/о н/о +30.1 +17.9 48 +35 +35 очень
душно
1011.3 956.9
21 22.05 штиль 0
{1}
н/о н/о +24.6 +18.7 70 +29 +29 душно 1012.4 957.0
22 22.05 штиль 0 н/о н/о +22.3 +18.1 77 +27 +27 душно 1013.3 957.4
23 22.05 штиль 0 н/о н/о +20.5 +18.2 87 +24 +24 комфорт 1014.0 957.8
00 23.05 штиль 0
{2}
н/о н/о +19.4 +17.7 90 +21 +21 комфорт 1014.8 958.3
01 23.05 штиль 0
{1}
н/о н/о +19.1 +17.6 91 +21 +21 комфорт 1015.1 958.5
02 23.05 Ю 1
{1}
н/о н/о +18.6 +17.3 92 +21 +21 комфорт 1015.4 958.7
03 23.05 ЮВ 1
{1}
н/о н/о +17.9 +17.0 94 +20 +20 1015.6 958.8
04 23.05 штиль 0
{1}
н/о н/о +18.0 +16.9 93 +18 +18 1015.2 958.4
05 23.05 штиль 0
{1}
н/о н/о +17.0 +16.2 95 +17 +17 1015.0 958.0
06 23.05 штиль 0
{1}
н/о н/о +16.2 +15.5 96 +16 +16 1015.0 957.9
08 23.05 штиль 0
{1}
н/о н/о +15.5 +14.9 96 +15 +15 1015.2 957.9
09 23.05 штиль 0
{2}
н/о н/о +15.5 +15.0 97 +15 +15 1016.1 958.8
10 23.05 штиль 0
{1}
н/о н/о +16.3 +15.9 97 +16 +16 1016.7 959.5
11 23.05 ЮВ 1
{1}
н/о н/о +21.1 +18.1 83 +25 +25 комфорт 1016.5 960.2
12 23.05 ЮВ 1
{2}
н/о н/о +26.6 +18.3 60 +31 +31 душно 1015.8 960.6
13 23.05 СВ 1
{2}
н/о н/о +29.2 +17.2 48 +33 +33 очень
душно
1015.2 960.5
14 23.05 СЗ 1
{2}
н/о н/о +31.2 +17.5 44 +35 +35 очень
душно
1014.2 959.9
15 23.05 Ю 1
{2}
н/о н/о +32.4 +16.7 39 +36 +36 очень
душно
1013.0 958.9
16 23.05 ЮВ 1
{3}
н/о н/о +32.0 +15.9 38 +35 +35 очень
душно
1011.8 957.7
17 23.05 ЮВ 1
{2}
н/о н/о +34.1 +15.3 32 +36 +36 душно 1010.4 956.8
18 23.05 С 1
{3}
н/о н/о +33.7 +14.4 31 +35 +35 очень
жарко
1009.8 956.1
19 23.05 СЗ 1
{3}
н/о н/о +33.2 +14.2 32 +35 +35 душно 1009.8 956.0
20 23.05 З 1
{2}
н/о н/о +31.7 +15.5 38 +34 +34 душно 1010.4 956.4
21 23.05 Ю 1
{2}
н/о н/о +25.0 +18.3 66 +29 +29 душно 1011.7 956.4
22 23.05 ЮЗ 1
{1}
н/о н/о +22.2 +18.4 79 +27 +27 душно 1012.7 956.8
23 23.05 ЮЗ 1
{1}
н/о н/о +20.6 +18.1 86 +26 +26 душно 1013.2 957.0
00 24.05 Ю 1
{1}
н/о н/о +19.8 +17.9 89 +24 +24 комфорт 1013.9 957.5
01 24.05 штиль 0
{1}
н/о н/о +18.8 +17.5 92 +20 +20 1014.4 957.8
02 24.05 штиль 0
{1}
н/о н/о +18.3 +17.2 93 +19 +19 1014.6 957.9
03 24.05 ЮВ 1
{1}
н/о н/о +18.5 +17.5 94 +21 +21 комфорт 1014.2 957.6
04 24.05 штиль 0
{1}
н/о н/о +18.4 +17.3 93 +19 +19 1014.1 957.5
05 24.05 штиль 0
{1}
н/о н/о +18.3 +17.3 94 +19 +19 1014.1 957.4
06 24.05 штиль 0
{1}
н/о н/о +17.5 +16.8 96 +17 +17 1014.2 957.4
07 24.05 штиль 0
{1}
н/о н/о +17.0 +16.3 96 +17 +17 1014.1 957.2
08 24.05 штиль 0
{1}
н/о н/о +16.2 +15.6 96 +16 +16 1014.4 957.3
09 24.05 штиль 0
{1}
н/о н/о +15.4 +14.8 96 +15 +15 1015.4 958.1
10 24.05 З 1
{2}
н/о н/о +17.4 +17.1 98 +19 +19 1015.6 958.7
11 24.05 штиль 0
{2}
н/о н/о +21.9 +18.5 81 +27 +27 душно 1015.2 959.1
12 24.05 штиль 0
{2}
н/о н/о +25.8 +18.0 62 +30 +30 душно 1014.9 959.6
13 24.05 СВ 1
{2}
н/о н/о +28.7 +17.5 51 +33 +33 очень
душно
1014.3 959.5
14 24.05 С 1
{3}
н/о н/о +31.1 +17.9 45 +35 +35 очень
душно
1013.5 959.2
15 24.05 СЗ 1
{2}
н/о н/о +32.3 +16.4 39 +35 +35 очень
душно
1012.7 958.6
16 24.05 С 1
{3}
н/о н/о +32.3 +15.1 35 +34 +34 душно 1011.4 957.4
17 24.05 ЮЗ 2
{3}
н/о н/о +30.6 +17.2 45 +35 +35 очень
душно
1011.1 956.8
18 24.05 З 1
{4}
н/о н/о +32.6 +15.6 36 +35 +35 душно 1010.4 956.5
19 24.05 ЮЗ 2
{3}
н/о н/о +31.7 +16.6 40 +35 +35 очень
душно
1010.6 956.5
20 24.05 ЮЗ 1
{3}
н/о н/о +29.1 +17.8 51 +34 +34 очень
душно
1010.9 956.4
21 24.05 З 1
{2}
н/о н/о +25.5 +18.5 65 +30 +30 душно 1012.0 956.8
22 24.05 З 1
{2}
н/о н/о +23.4 +18.5 74 +30 +30 очень
душно
1012.6 957.0
23 24.05 штиль 0
{2}
н/о н/о +20.9 +18.4 86 +25 +25 комфорт 1013.5 957.4
00 25.05 штиль 0
{1}
н/о н/о +19.8 +18.0 89 +22 +22 комфорт 1014.2 957.8
01 25.05 штиль 0
{1}
н/о н/о +19.3 +18.2 93 +21 +21 комфорт 1014.7 958.2
02 25.05 В 1
{1}
н/о н/о +18.9 +17.7 93 +22 +22 комфорт 1014.7 958.1
03 25.05 штиль 0
{1}
н/о н/о +18.0 +17.1 94 +18 +18 1014.7 957.9
04 25.05 штиль 0
{1}
н/о н/о +17.7 +17.0 96 +18 +18 1014.4 957.6
05 25.05 штиль 0
{1}
н/о н/о +16.9 +16.1 95 +17 +17 1014.2 957.3
06 25.05 штиль 0
{1}
н/о н/о +16.3 +15.6 96 +16 +16 1014.3 957.2

 

Местоположение метеостанции Сан-Ромао (Минас-Жерайс, Бразилия): широта -16.37 долгота -45.12 высота над уровнем моря 462 м.

В архиве по умолчанию представлена погода в Сан-Ромао за последнюю неделю. Архивные данные за месяц целиком и за предыдущие месяцы, начиная с января 2011 года, Вы можете получить, выбрав интересующий диапазон дат из раскрывающегося списка и нажав кнопку "Ввод!".


*Определитесь, кто Вы:
робот инопланетянин человек

Внимание! Время в таблицах - всемирное. Для получения местного времени необходимо прибавить поправку, которая равна -3 ч.

Смотрите также архив погоды в соседних городах и на ближайших метеорологических станциях:

Погода в Пирапоре (Минас-Жерайс, Бразилия) (103 км)
Погода в Пирапоре (Минас-Жерайс, Бразилия) (108 км)
Погода в Аринусе (Минас-Жерайс, Бразилия) (112 км)
Погода в Жануарии (Баия, Бразилия) (130 км)
Погода в Шапада-Гауше (Минас-Жерайс, Бразилия) (130 км)
Погода в Жануарии (Минас-Жерайс, Бразилия) (132 км)
Погода в Монтис-Кларусе (Минас-Жерайс, Бразилия) (139 км)
Погода в Монтис-Кларусе (Минас-Жерайс, Бразилия) (140 км)
Погода в Буритисе (Минас-Жерайс, Бразилия) (169 км)
Погода в Мокамбинхо (Минас-Жерайс, Бразилия) (186 км)

Пояснения к столбцам:

Ветер - указаны скорость ветра в м/с - средняя за 10 мин, порывы в срок и между сроками (в фигурных скобках) и направление, откуда дует ветер: С - северный, СВ - северо-восточный, В - восточный, ЮВ - юго-восточный, Ю - южный, ЮЗ - юго-западный, З - западный, СЗ - северо-западный.
Видимость - горизонтальная дальность видимости в метрах или километрах. При видимости от 1 до 10 км при отсутствии осадков обычно наблюдается дымка, при ухудшении видимости до 1 км и менее - туман. В сухую погоду видимость может ухудшаться дымом, пылью или мглою.
Явления - указаны атмосферные явления, наблюдавшиеся в срок или в последний час перед сроком; фигурными скобками обозначены явления, наблюдавшиеся между сроками (за 1-3 часа до срока); квадратными скобками обозначены град или гололедные отложения с указанием их диаметра в мм.
Облачность - указаны через наклонную черту общая и нижняя облачность в баллах и высота нижней границы облаков в метрах; квадратными скобками обозначены формы облаков: Ci - перистые, Cs - перисто-слоистые, Cc - перисто-кучевые, Ac - высококучевые, As - высокослоистые, Sc - слоисто-кучевые, Ns - слоисто-дождевые, Cu - кучевые, Cb - кучево-дождевые. Подробнее классификацию облаков см. в Атласе облаков (PDF).
T - Температура воздуха - температура, измеренная на высоте 2 м над землей.
Td - Температура точки росы - температура, при понижении до которой содержащийся в воздухе водяной пар достигнет насыщения.
f - Относительная влажность воздуха - влажноcть воздуха, измеренная на высоте 2 м над землей.
Te - Эффективная температура - температура, которую ощущает одетый по сезону человек в тени. Характеристика душности погоды. При расчете учитывается влияние влажности воздуха и скорости ветра на теплоощущения человека.
Tes - Эффективная температура на солнце - температура, которую ощущает человек, с поправкой на солнечный нагрев. Характеристика знойности погоды. Зависит от высоты солнца над горизонтом, облачности и скорости ветра. Ночью, в пасмурную погоду, а также при ветре 12 м/с и более поправка равна нулю.
P - Атмосферное давление - приведенное к уровню моря атмосферное давление.
Po - Атмосферное давление - измеренное на уровне метеостанции атмосферное давление.
Tmin - Минимальная температура - минимум температуры воздуха на высоте 2 м над землей.
Tmax - Максимальная температура - максимум температуры воздуха на высоте 2 м над землей.
R - Количество осадков - Количество выпавших осадков за период времени, мм. При наведении курсора мыши на число - период времени, за который выпало указанное количество осадков.
R24 - Количество осадков - Количество выпавших осадков за 24 часа, мм.
S - Снежный покров - Высота снежного покрова, см. При наведении курсора мыши на число - состояние снежного покрова и степень покрытия местности в баллах.